Wetterdaten: Samstag, 07.03.2015
Datum Zeit Temp. A. Feuchte A. Luftdruck Regen Wind Richtung Richtung Sonnenschein ET UV Solar Taupunkt Windchill Windben Empfang
07.03.2015 00:00 2,4 C 67 % 1037,3 hPa 0,0 l/m 0,0 km/h (0 Bft) S-SW 198 0 min 0,000 mm 0,0 UV-I 0 W/m -3,1 C 2,4 C 0,0 km/h (0 Bft) 0,00 %
07.03.2015 00:15 2,3 C 66 % 1037,2 hPa 0,0 l/m 0,0 km/h (0 Bft) SW 217 0 min 0,000 mm 0,0 UV-I 0 W/m -3,4 C 2,3 C 0,0 km/h (0 Bft) 0,00 %
07.03.2015 00:30 2,3 C 66 % 1036,8 hPa 0,0 l/m 0,0 km/h (0 Bft) S-SW 207 0 min 0,000 mm 0,0 UV-I 0 W/m -3,4 C 2,3 C 0,0 km/h (0 Bft) 0,00 %
07.03.2015 00:45 2,3 C 65 % 1036,7 hPa 0,0 l/m 0,0 km/h (0 Bft) S-SW 206 0 min 0,000 mm 0,0 UV-I 0 W/m -3,6 C 2,3 C 0,0 km/h (0 Bft) 0,00 %
07.03.2015 01:00 2,3 C 64 % 1036,7 hPa 0,0 l/m 0,0 km/h (0 Bft) S-SW 203 0 min 0,000 mm 0,0 UV-I 0 W/m -3,8 C 2,3 C 0,0 km/h (0 Bft) 0,00 %
07.03.2015 01:15 2,2 C 66 % 1036,6 hPa 0,0 l/m 0,0 km/h (0 Bft) S 190 0 min 0,000 mm 0,0 UV-I 0 W/m -3,5 C 2,2 C 0,0 km/h (0 Bft) 0,00 %
07.03.2015 01:30 2,1 C 68 % 1036,3 hPa 0,0 l/m 0,0 km/h (0 Bft) S-SW 202 0 min 0,000 mm 0,0 UV-I 0 W/m -3,2 C 2,1 C 0,0 km/h (0 Bft) 0,00 %
07.03.2015 01:45 2,1 C 67 % 1036,1 hPa 0,0 l/m 0,0 km/h (0 Bft) S-SW 202 0 min 0,000 mm 0,0 UV-I 0 W/m -3,4 C 2,1 C 0,0 km/h (0 Bft) 0,00 %
07.03.2015 02:00 2,0 C 67 % 1035,9 hPa 0,0 l/m 0,0 km/h (0 Bft) S-SW 200 0 min 0,000 mm 0,0 UV-I 0 W/m -3,5 C 2,0 C 0,0 km/h (0 Bft) 0,00 %
07.03.2015 02:15 2,0 C 67 % 1035,9 hPa 0,0 l/m 0,0 km/h (0 Bft) S-SW 197 0 min 0,000 mm 0,0 UV-I 0 W/m -3,5 C 2,0 C 0,0 km/h (0 Bft) 0,00 %
07.03.2015 02:30 2,0 C 68 % 1036,1 hPa 0,0 l/m 0,0 km/h (0 Bft) S-SW 204 0 min 0,000 mm 0,0 UV-I 0 W/m -3,3 C 2,0 C 0,0 km/h (0 Bft) 0,00 %
07.03.2015 02:45 1,8 C 71 % 1036,1 hPa 0,0 l/m 0,0 km/h (0 Bft) SW 216 0 min 0,000 mm 0,0 UV-I 0 W/m -2,9 C 1,8 C 0,0 km/h (0 Bft) 0,00 %
07.03.2015 03:00 1,7 C 70 % 1036,0 hPa 0,0 l/m 0,0 km/h (0 Bft) S 177 0 min 0,000 mm 0,0 UV-I 0 W/m -3,2 C 1,7 C 0,0 km/h (0 Bft) 0,00 %
07.03.2015 03:15 1,7 C 68 % 1036,0 hPa 0,0 l/m 0,0 km/h (0 Bft) S 191 0 min 0,000 mm 0,0 UV-I 0 W/m -3,6 C 1,7 C 0,0 km/h (0 Bft) 0,00 %
07.03.2015 03:30 1,8 C 70 % 1036,1 hPa 0,0 l/m 0,0 km/h (0 Bft) S-SW 201 0 min 0,000 mm 0,0 UV-I 0 W/m -3,1 C 1,8 C 0,0 km/h (0 Bft) 0,00 %
07.03.2015 03:45 1,5 C 73 % 1036,2 hPa 0,0 l/m 0,0 km/h (0 Bft) S-SW 207 0 min 0,000 mm 0,0 UV-I 0 W/m -2,8 C 1,5 C 0,0 km/h (0 Bft) 0,00 %
07.03.2015 04:00 1,2 C 75 % 1036,3 hPa 0,0 l/m 0,0 km/h (0 Bft) S-SW 197 0 min 0,000 mm 0,0 UV-I 0 W/m -2,7 C 1,2 C 0,0 km/h (0 Bft) 0,00 %
07.03.2015 04:15 1,2 C 75 % 1036,3 hPa 0,0 l/m 0,0 km/h (0 Bft) S-SW 208 0 min 0,000 mm 0,0 UV-I 0 W/m -2,7 C 1,2 C 0,0 km/h (0 Bft) 0,00 %
07.03.2015 04:30 1,2 C 73 % 1036,1 hPa 0,0 l/m 0,0 km/h (0 Bft) S-SW 209 0 min 0,000 mm 0,0 UV-I 0 W/m -3,1 C 1,2 C 0,0 km/h (0 Bft) 0,00 %
07.03.2015 04:45 1,3 C 73 % 1036,1 hPa 0,0 l/m 0,0 km/h (0 Bft) SW 214 0 min 0,000 mm 0,0 UV-I 0 W/m -3,0 C 1,3 C 0,0 km/h (0 Bft) 0,00 %
07.03.2015 05:00 1,3 C 72 % 1036,0 hPa 0,0 l/m 0,0 km/h (0 Bft) S 189 0 min 0,000 mm 0,0 UV-I 0 W/m -3,2 C 1,3 C 0,0 km/h (0 Bft) 0,00 %
07.03.2015 05:15 1,3 C 73 % 1035,9 hPa 0,0 l/m 0,0 km/h (0 Bft) S 189 0 min 0,000 mm 0,0 UV-I 0 W/m -3,0 C 1,3 C 0,0 km/h (0 Bft) 0,00 %
07.03.2015 05:30 1,3 C 74 % 1035,9 hPa 0,0 l/m 0,0 km/h (0 Bft) S 187 0 min 0,000 mm 0,0 UV-I 0 W/m -2,8 C 1,3 C 0,0 km/h (0 Bft) 0,00 %
07.03.2015 05:45 1,2 C 75 % 1036,2 hPa 0,0 l/m 0,0 km/h (0 Bft) S 190 0 min 0,000 mm 0,0 UV-I 0 W/m -2,7 C 1,2 C 0,0 km/h (0 Bft) 0,00 %
07.03.2015 06:00 1,2 C 74 % 1036,1 hPa 0,0 l/m 0,0 km/h (0 Bft) S-SW 201 0 min 0,000 mm 0,0 UV-I 0 W/m -2,9 C 1,2 C 0,0 km/h (0 Bft) 0,00 %
07.03.2015 06:15 1,2 C 73 % 1036,1 hPa 0,0 l/m 0,0 km/h (0 Bft) S-SW 201 0 min 0,000 mm 0,0 UV-I 0 W/m -3,1 C 1,2 C 0,0 km/h (0 Bft) 0,00 %
07.03.2015 06:30 1,2 C 74 % 1036,3 hPa 0,0 l/m 0,0 km/h (0 Bft) S-SW 192 0 min 0,000 mm 0,0 UV-I 0 W/m -2,9 C 1,2 C 0,0 km/h (0 Bft) 0,00 %
07.03.2015 06:45 1,2 C 74 % 1036,5 hPa 0,0 l/m 0,0 km/h (0 Bft) S-SW 203 0 min 0,000 mm 0,0 UV-I 0 W/m -2,9 C 1,2 C 0,0 km/h (0 Bft) 0,00 %
07.03.2015 07:00 1,3 C 74 % 1036,7 hPa 0,0 l/m 0,0 km/h (0 Bft) S-SW 203 0 min 0,000 mm 0,0 UV-I 19 W/m -2,8 C 1,3 C 0,0 km/h (0 Bft) 0,00 %
07.03.2015 07:15 1,6 C 71 % 1036,8 hPa 0,0 l/m 0,0 km/h (0 Bft) S-SW 203 15 min 0,000 mm 1,0 UV-I 78 W/m -3,1 C 1,6 C 0,0 km/h (0 Bft) 0,00 %
07.03.2015 07:30 2,0 C 70 % 1036,6 hPa 0,0 l/m 0,0 km/h (0 Bft) S-SW 202 15 min 0,000 mm 1,0 UV-I 90 W/m -2,9 C 2,0 C 0,0 km/h (0 Bft) 0,00 %
07.03.2015 07:45 2,6 C 73 % 1036,5 hPa 0,0 l/m 0,0 km/h (0 Bft) SW 220 15 min 0,000 mm 1,0 UV-I 135 W/m -1,7 C 2,6 C 0,0 km/h (0 Bft) 0,00 %
07.03.2015 08:00 3,2 C 70 % 1036,1 hPa 0,0 l/m 0,0 km/h (0 Bft) SW 220 15 min 0,000 mm 1,0 UV-I 158 W/m -1,7 C 3,2 C 0,0 km/h (0 Bft) 0,00 %
07.03.2015 08:15 4,0 C 68 % 1036,0 hPa 0,0 l/m 0,0 km/h (0 Bft) S-SW 206 15 min 0,000 mm 1,0 UV-I 178 W/m -1,4 C 4,0 C 0,0 km/h (0 Bft) 0,00 %
07.03.2015 08:30 4,6 C 64 % 1036,0 hPa 0,0 l/m 0,0 km/h (0 Bft) S-SW 207 15 min 0,000 mm 1,0 UV-I 190 W/m -1,6 C 4,6 C 0,0 km/h (0 Bft) 0,00 %
07.03.2015 08:45 5,4 C 61 % 1035,8 hPa 0,0 l/m 0,7 km/h (0 Bft) W-SW 255 15 min 0,000 mm 2,0 UV-I 211 W/m -1,5 C 5,4 C 4,0 km/h (1 Bft) 0,00 %
07.03.2015 09:00 5,7 C 59 % 1035,9 hPa 0,0 l/m 0,0 km/h (0 Bft) S-SW 212 15 min 0,000 mm 2,0 UV-I 222 W/m -1,7 C 5,7 C 0,0 km/h (0 Bft) 0,00 %
07.03.2015 09:15 6,4 C 55 % 1035,4 hPa 0,0 l/m 0,0 km/h (0 Bft) W-SW 256 15 min 0,000 mm 2,0 UV-I 345 W/m -2,0 C 6,4 C 0,0 km/h (0 Bft) 0,00 %
07.03.2015 09:30 6,5 C 55 % 1035,2 hPa 0,0 l/m 0,0 km/h (0 Bft) O-SO 115 0 min 0,000 mm 2,0 UV-I 214 W/m -1,9 C 6,5 C 0,0 km/h (0 Bft) 0,00 %
07.03.2015 09:45 6,8 C 55 % 1035,6 hPa 0,0 l/m 0,0 km/h (0 Bft) S-SW 213 0 min 0,000 mm 2,0 UV-I 205 W/m -1,6 C 6,8 C 0,0 km/h (0 Bft) 0,00 %
07.03.2015 10:00 7,4 C 52 % 1034,3 hPa 0,0 l/m 0,7 km/h (0 Bft) W-SW 256 0 min 0,000 mm 2,0 UV-I 189 W/m -1,8 C 7,4 C 4,0 km/h (1 Bft) 0,00 %
07.03.2015 10:15 7,0 C 53 % 1034,1 hPa 0,0 l/m 0,0 km/h (0 Bft) SW 217 0 min 0,000 mm 3,0 UV-I 202 W/m -1,9 C 7,0 C 0,0 km/h (0 Bft) 0,00 %
07.03.2015 10:30 7,7 C 49 % 1033,8 hPa 0,0 l/m 1,8 km/h (1 Bft) W-SW 256 0 min 0,000 mm 3,0 UV-I 213 W/m -2,3 C 7,7 C 4,0 km/h (1 Bft) 0,00 %
07.03.2015 10:45 7,6 C 52 % 1034,0 hPa 0,0 l/m 0,0 km/h (0 Bft) S-SW 206 0 min 0,000 mm 3,0 UV-I 127 W/m -1,6 C 7,6 C 0,0 km/h (0 Bft) 0,00 %
07.03.2015 11:00 8,1 C 51 % 1034,0 hPa 0,0 l/m 1,4 km/h (1 Bft) SW 231 0 min 0,000 mm 3,0 UV-I 264 W/m -1,4 C 8,1 C 4,0 km/h (1 Bft) 0,00 %
07.03.2015 11:15 7,3 C 51 % 1033,9 hPa 0,0 l/m 0,4 km/h (0 Bft) N-NW 331 0 min 0,000 mm 3,0 UV-I 228 W/m -2,2 C 7,3 C 4,0 km/h (1 Bft) 0,00 %
07.03.2015 11:30 7,2 C 51 % 1034,1 hPa 0,0 l/m 0,0 km/h (0 Bft) NW 318 15 min 0,000 mm 3,0 UV-I 360 W/m -2,2 C 7,2 C 0,0 km/h (0 Bft) 0,00 %
07.03.2015 11:45 7,3 C 52 % 1033,9 hPa 0,0 l/m 0,0 km/h (0 Bft) O-NO 72 15 min 0,000 mm 2,0 UV-I 385 W/m -1,9 C 7,3 C 0,0 km/h (0 Bft) 0,00 %
07.03.2015 12:00 7,2 C 50 % 1034,0 hPa 0,0 l/m 0,0 km/h (0 Bft) S-SW 198 0 min 0,000 mm 2,0 UV-I 188 W/m -2,5 C 7,2 C 0,0 km/h (0 Bft) 0,00 %
07.03.2015 12:15 7,5 C 52 % 1033,7 hPa 0,0 l/m 0,0 km/h (0 Bft) W-SW 256 0 min 0,000 mm 2,0 UV-I 210 W/m -1,7 C 7,5 C 0,0 km/h (0 Bft) 0,00 %
07.03.2015 12:30 7,7 C 50 % 1033,3 hPa 0,0 l/m 0,0 km/h (0 Bft) S 190 0 min 0,000 mm 2,0 UV-I 252 W/m -2,1 C 7,7 C 0,0 km/h (0 Bft) 0,00 %
07.03.2015 12:45 7,7 C 52 % 1033,4 hPa 0,0 l/m 2,2 km/h (1 Bft) SO 140 0 min 0,000 mm 2,0 UV-I 242 W/m -1,5 C 7,7 C 4,0 km/h (1 Bft) 0,00 %
07.03.2015 13:00 7,7 C 48 % 1033,2 hPa 0,0 l/m 1,8 km/h (1 Bft) O 94 0 min 0,000 mm 2,0 UV-I 210 W/m -2,6 C 7,7 C 4,0 km/h (1 Bft) 0,00 %
07.03.2015 13:15 8,0 C 45 % 1032,7 hPa 0,0 l/m 0,0 km/h (0 Bft) W-SW 252 0 min 0,000 mm 2,0 UV-I 203 W/m -3,2 C 8,0 C 0,0 km/h (0 Bft) 0,00 %
07.03.2015 13:30 8,3 C 46 % 1032,5 hPa 0,0 l/m 2,2 km/h (1 Bft) O-SO 104 0 min 0,000 mm 2,0 UV-I 226 W/m -2,6 C 8,3 C 4,0 km/h (1 Bft) 0,00 %
07.03.2015 13:45 8,4 C 46 % 1032,4 hPa 0,0 l/m 4,3 km/h (1 Bft) O-SO 113 0 min 0,000 mm 2,0 UV-I 240 W/m -2,5 C 8,4 C 7,9 km/h (2 Bft) 0,00 %
07.03.2015 14:00 8,3 C 46 % 1032,3 hPa 0,0 l/m 3,2 km/h (1 Bft) O 97 0 min 0,000 mm 2,0 UV-I 232 W/m -2,6 C 8,3 C 7,9 km/h (2 Bft) 0,00 %
07.03.2015 14:15 8,1 C 43 % 1032,1 hPa 0,0 l/m 0,0 km/h (0 Bft) S 174 0 min 0,000 mm 2,0 UV-I 204 W/m -3,7 C 8,1 C 0,0 km/h (0 Bft) 0,00 %
07.03.2015 14:30 8,1 C 43 % 1031,6 hPa 0,0 l/m 1,4 km/h (1 Bft) O-SO 105 0 min 0,000 mm 2,0 UV-I 138 W/m -3,7 C 8,1 C 4,0 km/h (1 Bft) 0,00 %
07.03.2015 14:45 8,0 C 43 % 1031,5 hPa 0,0 l/m 0,4 km/h (0 Bft) S 174 0 min 0,000 mm 2,0 UV-I 123 W/m -3,8 C 8,0 C 4,0 km/h (1 Bft) 0,00 %
07.03.2015 15:00 7,9 C 46 % 1031,5 hPa 0,0 l/m 0,0 km/h (0 Bft) O-NO 73 0 min 0,000 mm 2,0 UV-I 124 W/m -3,0 C 7,9 C 0,0 km/h (0 Bft) 0,00 %
07.03.2015 15:15 7,8 C 45 % 1031,6 hPa 0,0 l/m 4,3 km/h (1 Bft) O 98 0 min 0,000 mm 1,0 UV-I 116 W/m -3,4 C 7,8 C 7,9 km/h (2 Bft) 0,00 %
07.03.2015 15:30 7,7 C 46 % 1031,5 hPa 0,0 l/m 6,5 km/h (2 Bft) O-NO 73 0 min 0,000 mm 1,0 UV-I 113 W/m -3,2 C 7,6 C 7,9 km/h (2 Bft) 0,00 %
07.03.2015 15:45 7,7 C 45 % 1031,5 hPa 0,0 l/m 0,4 km/h (0 Bft) S 175 0 min 0,000 mm 1,0 UV-I 111 W/m -3,5 C 7,7 C 4,0 km/h (1 Bft) 0,00 %
07.03.2015 16:00 7,9 C 47 % 1031,2 hPa 0,0 l/m 2,2 km/h (1 Bft) SO 134 0 min 0,000 mm 1,0 UV-I 111 W/m -2,7 C 7,9 C 7,9 km/h (2 Bft) 0,00 %
07.03.2015 16:15 8,4 C 44 % 1031,3 hPa 0,0 l/m 1,4 km/h (1 Bft) SO 138 15 min 0,000 mm 1,0 UV-I 377 W/m -3,1 C 8,4 C 4,0 km/h (1 Bft) 0,00 %
07.03.2015 16:30 8,0 C 45 % 1031,3 hPa 0,0 l/m 7,2 km/h (2 Bft) O-NO 76 15 min 0,000 mm 1,0 UV-I 347 W/m -3,2 C 7,4 C 11,9 km/h (2 Bft) 0,00 %
07.03.2015 16:45 7,8 C 46 % 1031,7 hPa 0,0 l/m 0,4 km/h (0 Bft) S-SW 199 15 min 0,000 mm 1,0 UV-I 306 W/m -3,1 C 7,8 C 4,0 km/h (1 Bft) 0,00 %
07.03.2015 17:00 7,5 C 45 % 1031,8 hPa 0,0 l/m 1,4 km/h (1 Bft) S-SW 193 15 min 0,000 mm 0,0 UV-I 244 W/m -3,6 C 7,5 C 4,0 km/h (1 Bft) 0,00 %
07.03.2015 17:15 7,1 C 48 % 1032,2 hPa 0,0 l/m 2,9 km/h (1 Bft) O-SO 116 15 min 0,000 mm 0,0 UV-I 169 W/m -3,2 C 7,1 C 4,0 km/h (1 Bft) 0,00 %
07.03.2015 17:30 6,4 C 52 % 1032,2 hPa 0,0 l/m 0,0 km/h (0 Bft) S 185 15 min 0,000 mm 0,0 UV-I 86 W/m -2,7 C 6,4 C 0,0 km/h (0 Bft) 0,00 %
07.03.2015 17:45 5,7 C 52 % 1032,5 hPa 0,0 l/m 0,0 km/h (0 Bft) S 174 15 min 0,000 mm 0,0 UV-I 20 W/m -3,4 C 5,7 C 0,0 km/h (0 Bft) 0,00 %
07.03.2015 18:00 5,0 C 55 % 1032,9 hPa 0,0 l/m 0,0 km/h (0 Bft) S-SW 194 0 min 0,000 mm 0,0 UV-I 1 W/m -3,3 C 5,0 C 0,0 km/h (0 Bft) 0,00 %
07.03.2015 18:15 4,6 C 56 % 1032,8 hPa 0,0 l/m 0,0 km/h (0 Bft) S 173 0 min 0,000 mm 0,0 UV-I 0 W/m -3,4 C 4,6 C 0,0 km/h (0 Bft) 0,00 %
07.03.2015 18:30 4,6 C 56 % 1032,8 hPa 0,0 l/m 0,0 km/h (0 Bft) SO 144 0 min 0,000 mm 0,0 UV-I 0 W/m -3,4 C 4,6 C 0,0 km/h (0 Bft) 0,00 %
07.03.2015 18:45 4,7 C 55 % 1033,0 hPa 0,0 l/m 0,0 km/h (0 Bft) S 173 0 min 0,000 mm 0,0 UV-I 0 W/m -3,6 C 4,7 C 0,0 km/h (0 Bft) 0,00 %
07.03.2015 19:00 4,5 C 56 % 1032,8 hPa 0,0 l/m 0,0 km/h (0 Bft) SO 141 0 min 0,000 mm 0,0 UV-I 0 W/m -3,5 C 4,5 C 0,0 km/h (0 Bft) 0,00 %
07.03.2015 19:15 4,5 C 56 % 1032,9 hPa 0,0 l/m 0,4 km/h (0 Bft) SO 142 0 min 0,000 mm 0,0 UV-I 0 W/m -3,5 C 4,5 C 4,0 km/h (1 Bft) 0,00 %
07.03.2015 19:30 4,3 C 58 % 1033,0 hPa 0,0 l/m 0,0 km/h (0 Bft) S 183 0 min 0,000 mm 0,0 UV-I 0 W/m -3,2 C 4,3 C 0,0 km/h (0 Bft) 0,00 %
07.03.2015 19:45 4,0 C 59 % 1033,1 hPa 0,0 l/m 0,0 km/h (0 Bft) SO 144 0 min 0,000 mm 0,0 UV-I 0 W/m -3,3 C 4,0 C 0,0 km/h (0 Bft) 0,00 %
07.03.2015 20:00 3,9 C 60 % 1033,0 hPa 0,0 l/m 0,7 km/h (0 Bft) O-SO 111 0 min 0,000 mm 0,0 UV-I 0 W/m -3,1 C 3,9 C 4,0 km/h (1 Bft) 0,00 %
07.03.2015 20:15 3,8 C 59 % 1033,0 hPa 0,0 l/m 0,0 km/h (0 Bft) SO 143 0 min 0,000 mm 0,0 UV-I 0 W/m -3,5 C 3,8 C 0,0 km/h (0 Bft) 0,00 %
07.03.2015 20:30 3,5 C 63 % 1032,7 hPa 0,0 l/m 0,0 km/h (0 Bft) S 178 0 min 0,000 mm 0,0 UV-I 0 W/m -2,9 C 3,5 C 0,0 km/h (0 Bft) 0,00 %
07.03.2015 20:45 2,9 C 62 % 1032,8 hPa 0,0 l/m 0,0 km/h (0 Bft) S-SW 193 0 min 0,000 mm 0,0 UV-I 0 W/m -3,6 C 2,9 C 0,0 km/h (0 Bft) 0,00 %
07.03.2015 21:00 2,9 C 62 % 1032,9 hPa 0,0 l/m 0,0 km/h (0 Bft) S-SO 151 0 min 0,000 mm 0,0 UV-I 0 W/m -3,6 C 2,9 C 0,0 km/h (0 Bft) 0,00 %
07.03.2015 21:15 1,8 C 63 % 1032,8 hPa 0,0 l/m 0,0 km/h (0 Bft) S-SW 200 0 min 0,000 mm 0,0 UV-I 0 W/m -4,5 C 1,8 C 0,0 km/h (0 Bft) 0,00 %
07.03.2015 21:30 1,3 C 65 % 1032,8 hPa 0,0 l/m 0,0 km/h (0 Bft) S-SW 207 0 min 0,000 mm 0,0 UV-I 0 W/m -4,5 C 1,3 C 0,0 km/h (0 Bft) 0,00 %
07.03.2015 21:45 0,8 C 68 % 1032,7 hPa 0,0 l/m 0,0 km/h (0 Bft) S-SW 192 0 min 0,000 mm 0,0 UV-I 0 W/m -4,4 C 0,8 C 0,0 km/h (0 Bft) 0,00 %
07.03.2015 22:00 0,6 C 70 % 1032,6 hPa 0,0 l/m 0,0 km/h (0 Bft) S-SW 208 0 min 0,000 mm 0,0 UV-I 0 W/m -4,2 C 0,6 C 0,0 km/h (0 Bft) 0,00 %
07.03.2015 22:15 0,2 C 71 % 1032,6 hPa 0,0 l/m 0,0 km/h (0 Bft) S 179 0 min 0,000 mm 0,0 UV-I 0 W/m -4,4 C 0,2 C 0,0 km/h (0 Bft) 0,00 %
07.03.2015 22:30 0,3 C 71 % 1032,7 hPa 0,0 l/m 0,0 km/h (0 Bft) SW 219 0 min 0,000 mm 0,0 UV-I 0 W/m -4,3 C 0,3 C 0,0 km/h (0 Bft) 0,00 %
07.03.2015 22:45 0,2 C 70 % 1032,4 hPa 0,0 l/m 0,0 km/h (0 Bft) S 173 0 min 0,000 mm 0,0 UV-I 0 W/m -4,6 C 0,2 C 0,0 km/h (0 Bft) 0,00 %
07.03.2015 23:00 0,3 C 71 % 1032,5 hPa 0,0 l/m 0,0 km/h (0 Bft) S 179 0 min 0,000 mm 0,0 UV-I 0 W/m -4,3 C 0,3 C 0,0 km/h (0 Bft) 0,00 %
07.03.2015 23:15 -0,3 C 75 % 1032,7 hPa 0,0 l/m 0,0 km/h (0 Bft) SW 218 0 min 0,000 mm 0,0 UV-I 0 W/m -4,2 C -0,3 C 0,0 km/h (0 Bft) 0,00 %
07.03.2015 23:30 -0,5 C 75 % 1032,4 hPa 0,0 l/m 0,0 km/h (0 Bft) S 180 0 min 0,000 mm 0,0 UV-I 0 W/m -4,4 C -0,5 C 0,0 km/h (0 Bft) 0,00 %
_ Min-Zeit 23:30 14:15 16:00 - 00:00 - - - - - - 22:45 23:30 00:00 00:00
Minimum _ -0,5 C 43 % 1031,2 hPa - 0,0 km/h (0 Bft) - - - - - - -4,6 C -0,5 C 0,0 km/h (0 Bft) 0,00 %
_ Max-Zeit 13:45 04:00 00:00 00:00 16:30 - - 07:15 00:00 10:15 11:45 08:15 13:45 16:30 00:00
Maximum _ 8,4 C 75 % 1037,3 hPa 0,0 l/m 7,2 km/h
O-NO (2 Bft)
- - 15 min 0,000 mm 3,0 UV-I 385 W/m -1,4 C 8,4 C 11,9 km/h
O-NO (2 Bft)
0,00 %
Durchschnitt _ 4,2 C 60 % 1034,2 hPa #0,0 l/m 0,5 km/h (0 Bft) O-SO - #4:30 h #0,000 mm 1,8 UV-I 191 W/m -3,0 C 4,2 C 1,3 km/h (1 Bft) 0,00 %